Hourly Weather Gogolowice

Today, 13 May, Thursday

Time Temperature Precipitation Wind Pressure Humidity
00:00 +14°C° 0.1 mm 4 mps 740 mmHg 97%
01:00 +14°C° 0.1 mm 4 mps 740 mmHg 97%
02:00 +13°C° 0.1 mm 4 mps 740 mmHg 97%
03:00 +12°C° 0.1 mm 4 mps 740 mmHg 96%
04:00 +12°C° 0.1 mm 4 mps 740 mmHg 96%
05:00 +12°C° 0 mm 4 mps 740 mmHg 96%
06:00 +12°C° 0 mm 4 mps 739 mmHg 96%
07:00 +12°C° 0 mm 4 mps 739 mmHg 97%
08:00 +12°C° 0 mm 4 mps 739 mmHg 96%
09:00 +12°C° 0 mm 4 mps 739 mmHg 96%
10:00 +12°C° 0 mm 4 mps 739 mmHg 95%
11:00 +12°C° 0.1 mm 4 mps 739 mmHg 95%
12:00 +12°C° 0.1 mm 4 mps 739 mmHg 94%
13:00 +11°C° 0.1 mm 4 mps 739 mmHg 94%
14:00 +11°C° 0.2 mm 4 mps 739 mmHg 94%
15:00 +11°C° 0.2 mm 4 mps 739 mmHg 94%
16:00 +10°C° 0.2 mm 5 mps 739 mmHg 95%
17:00 +10°C° 0.2 mm 5 mps 739 mmHg 95%
18:00 +10°C° 0.2 mm 5 mps 739 mmHg 95%
19:00 +10°C° 0.2 mm 5 mps 739 mmHg 95%
20:00 +9°C° 0.1 mm 5 mps 739 mmHg 95%
21:00 +9°C° 0.1 mm 5 mps 740 mmHg 95%
22:00 +9°C° 0.1 mm 5 mps 740 mmHg 95%
23:00 +9°C° 0.1 mm 5 mps 740 mmHg 95%

Tomorrow, 14 May, Friday

Time Temperature Precipitation Wind Pressure Humidity
00:00 +9°C° 0.1 mm 5 mps 740 mmHg 94%
01:00 +8°C° 0.1 mm 6 mps 740 mmHg 94%
02:00 +8°C° 0.2 mm 5 mps 740 mmHg 94%
03:00 +8°C° 0.2 mm 5 mps 740 mmHg 94%
04:00 +8°C° 0.2 mm 5 mps 740 mmHg 94%
05:00 +8°C° 0.4 mm 6 mps 740 mmHg 94%
06:00 +8°C° 0.4 mm 6 mps 741 mmHg 94%
07:00 +8°C° 0.4 mm 6 mps 741 mmHg 93%
08:00 +8°C° 0.3 mm 6 mps 741 mmHg 93%
09:00 +8°C° 0.3 mm 6 mps 742 mmHg 92%
10:00 +8°C° 0.3 mm 6 mps 742 mmHg 92%
11:00 +9°C° 0.1 mm 5 mps 742 mmHg 91%
12:00 +9°C° 0.1 mm 5 mps 742 mmHg 90%
13:00 +9°C° 0.1 mm 5 mps 743 mmHg 89%
14:00 +11°C° 0 mm 4 mps 743 mmHg 87%
15:00 +11°C° 0 mm 4 mps 743 mmHg 86%
16:00 +11°C° 0 mm 4 mps 743 mmHg 84%
17:00 +11°C° 0 mm 3 mps 743 mmHg 87%
18:00 +12°C° 0 mm 2 mps 743 mmHg 89%
19:00 +11°C° 0 mm 1 mps 744 mmHg 91%
20:00 +10°C° 0 mm 1 mps 744 mmHg 92%
21:00 +10°C° 0 mm 1 mps 744 mmHg 92%
22:00 +9°C° 0 mm 1 mps 744 mmHg 93%
23:00 +9°C° 0 mm 1 mps 744 mmHg 93%

Day after tomorrow, 15 May, Saturday

Time Temperature Precipitation Wind Pressure Humidity
00:00 +9°C° 0 mm 1 mps 744 mmHg 93%
01:00 +9°C° 0 mm 1 mps 744 mmHg 92%
02:00 +8°C° 0 mm 1 mps 744 mmHg 92%
03:00 +8°C° 0 mm 1 mps 744 mmHg 91%
04:00 +8°C° 0 mm 1 mps 744 mmHg 91%
05:00 +10°C° 0 mm 1 mps 745 mmHg 87%
06:00 +11°C° 0 mm 1 mps 745 mmHg 83%
07:00 +13°C° 0 mm 1 mps 745 mmHg 79%
08:00 +14°C° 0.1 mm 1 mps 745 mmHg 75%
09:00 +16°C° 0.1 mm 1 mps 745 mmHg 70%
10:00 +18°C° 0.1 mm 1 mps 745 mmHg 65%
11:00 +19°C° 0.4 mm 1 mps 744 mmHg 64%
12:00 +19°C° 0.4 mm 1 mps 744 mmHg 64%
13:00 +19°C° 0.4 mm 1 mps 744 mmHg 63%
14:00 +19°C° 0.4 mm 1 mps 744 mmHg 64%
15:00 +19°C° 0.4 mm 1 mps 743 mmHg 65%
16:00 +19°C° 0.4 mm 1 mps 743 mmHg 66%
17:00 +18°C° 0.8 mm 1 mps 743 mmHg 73%
18:00 +15°C° 0.8 mm 1 mps 743 mmHg 80%
19:00 +14°C° 0.8 mm 1 mps 743 mmHg 86%
20:00 +13°C° 0.5 mm 2 mps 743 mmHg 89%
21:00 +13°C° 0.5 mm 2 mps 743 mmHg 91%
22:00 +12°C° 0.5 mm 2 mps 743 mmHg 94%
23:00 +12°C° 0.5 mm 2 mps 743 mmHg 93%

16 May, Sunday

Time Temperature Precipitation Wind Pressure Humidity
00:00 +10°C° 0.5 mm 2 mps 743 mmHg 93%
01:00 +11°C° 0.5 mm 1 mps 743 mmHg 92%
02:00 +9°C° 0 mm 2 mps 743 mmHg 92%
03:00 +9°C° 0 mm 2 mps 743 mmHg 93%
04:00 +8°C° 0 mm 3 mps 743 mmHg 93%
05:00 +9°C° 0 mm 3 mps 743 mmHg 91%
06:00 +10°C° 0 mm 3 mps 743 mmHg 89%
07:00 +10°C° 0 mm 3 mps 743 mmHg 86%
08:00 +12°C° 0 mm 2 mps 743 mmHg 83%
09:00 +13°C° 0 mm 2 mps 743 mmHg 80%
10:00 +13°C° 0 mm 2 mps 743 mmHg 77%
11:00 +14°C° 0.1 mm 2 mps 743 mmHg 76%
12:00 +14°C° 0.1 mm 2 mps 743 mmHg 76%
13:00 +14°C° 0.1 mm 2 mps 743 mmHg 75%
14:00 +15°C° 0.1 mm 2 mps 742 mmHg 73%
15:00 +15°C° 0.1 mm 2 mps 742 mmHg 71%
16:00 +16°C° 0.1 mm 2 mps 742 mmHg 70%
17:00 +15°C° 0.3 mm 2 mps 742 mmHg 75%
18:00 +14°C° 0.3 mm 2 mps 742 mmHg 80%
19:00 +13°C° 0.3 mm 1 mps 742 mmHg 85%
20:00 +12°C° 0 mm 1 mps 742 mmHg 86%
21:00 +11°C° 0 mm 1 mps 742 mmHg 88%
22:00 +10°C° 0 mm 1 mps 742 mmHg 89%
23:00 +9°C° 0 mm 2 mps 742 mmHg 90%

17 May, Monday

Time Temperature Precipitation Wind Pressure Humidity
00:00 +8°C° 0 mm 2 mps 742 mmHg 90%
01:00 +8°C° 0 mm 2 mps 742 mmHg 91%
02:00 +8°C° 0 mm 2 mps 742 mmHg 90%
03:00 +7°C° 0 mm 2 mps 742 mmHg 90%
04:00 +7°C° 0 mm 2 mps 742 mmHg 89%
05:00 +9°C° 0 mm 2 mps 742 mmHg 86%
06:00 +10°C° 0 mm 2 mps 742 mmHg 83%
07:00 +13°C° 0 mm 2 mps 742 mmHg 79%
08:00 +14°C° 0.2 mm 2 mps 742 mmHg 74%
09:00 +16°C° 0.2 mm 3 mps 742 mmHg 69%
10:00 +17°C° 0.2 mm 3 mps 742 mmHg 65%
11:00 +17°C° 0.3 mm 3 mps 742 mmHg 63%
12:00 +18°C° 0.3 mm 3 mps 742 mmHg 61%
13:00 +18°C° 0.3 mm 4 mps 741 mmHg 60%
14:00 +18°C° 0.2 mm 4 mps 741 mmHg 61%
15:00 +18°C° 0.2 mm 4 mps 742 mmHg 63%
16:00 +17°C° 0.2 mm 4 mps 742 mmHg 65%
17:00 +15°C° 0.1 mm 4 mps 742 mmHg 71%
18:00 +14°C° 0.1 mm 3 mps 742 mmHg 77%
19:00 +13°C° 0.1 mm 2 mps 742 mmHg 83%
20:00 +12°C° 0 mm 2 mps 742 mmHg 85%
21:00 +12°C° 0 mm 2 mps 742 mmHg 88%
22:00 +10°C° 0 mm 2 mps 742 mmHg 90%
23:00 +9°C° 0 mm 2 mps 742 mmHg 89%

18 May, Tuesday

Time Temperature Precipitation Wind Pressure Humidity
00:00 +9°C° 0 mm 3 mps 742 mmHg 88%
01:00 +9°C° 0 mm 3 mps 742 mmHg 88%
02:00 +9°C° 0 mm 3 mps 742 mmHg 87%
03:00 +9°C° 0 mm 3 mps 742 mmHg 86%
04:00 +8°C° 0 mm 3 mps 742 mmHg 86%
05:00 +8°C° 0 mm 4 mps 743 mmHg 84%
06:00 +10°C° 0 mm 4 mps 743 mmHg 83%
07:00 +9°C° 0 mm 5 mps 743 mmHg 82%
08:00 +10°C° 0 mm 5 mps 743 mmHg 80%
09:00 +12°C° 0 mm 5 mps 744 mmHg 78%
10:00 +11°C° 0 mm 6 mps 744 mmHg 76%
11:00 +13°C° 0.1 mm 6 mps 744 mmHg 76%
12:00 +13°C° 0.1 mm 6 mps 744 mmHg 76%
13:00 +12°C° 0.1 mm 7 mps 744 mmHg 76%
14:00 +12°C° 0.4 mm 7 mps 744 mmHg 78%
15:00 +12°C° 0.4 mm 7 mps 744 mmHg 81%
16:00 +12°C° 0.4 mm 7 mps 745 mmHg 83%
17:00 +11°C° 0.1 mm 7 mps 745 mmHg 82%
18:00 +11°C° 0.1 mm 7 mps 745 mmHg 82%
19:00 +10°C° 0.1 mm 7 mps 746 mmHg 82%
20:00 +9°C° 0 mm 7 mps 746 mmHg 83%
21:00 +9°C° 0 mm 7 mps 746 mmHg 84%
22:00 +8°C° 0 mm 7 mps 747 mmHg 86%
23:00 +8°C° 0 mm 7 mps 747 mmHg 87%
Show more